Weather History for KADG - October, 2012

Change the Weather History Date:

Wednesday, October 24, 2012

  Actual Average Record
Temperature  
Mean Temperature 67 °F -  
Max Temperature 77 °F 59 °F 81 °F (1963)
Min Temperature 57 °F 37 °F 21 °F (1969)
Cooling Degree Days 2    
Growing Degree Days 17 (Base 50)    
Moisture  
Dew Point 58 °F    
Average Humidity 78    
Maximum Humidity 97    
Minimum Humidity 52    
Precipitation  
Precipitation 0.10 in - - ()
Sea Level Pressure  
Sea Level Pressure 30.02 in    
Wind  
Wind Speed 5 mph (SSW)    
Max Wind Speed 18 mph    
Max Gust Speed 22 mph    
Visibility 8 miles    
Events Rain    
Averages and records for this station are not official NWS values.
T = Trace of Precipitation, MM = Missing Value Source: NWS Daily Summary

Daily Weather History Graph

Daily Weather History Graph

Search for Another Location

Airport or City:

Trip Planner

Search our weather history database for the weather conditions in past years. The results will help you decide how hot, cold, wet, or windy it might be!

Date:

Astronomy

Oct. 24, 2012 Rise Set
Actual Time 7:59 AM EDT 6:40 PM EDT
Civil Twilight 7:31 AM EDT 7:09 PM EDT
Nautical Twilight 6:58 AM EDT 7:41 PM EDT
Astronomical Twilight 6:26 AM EDT 8:13 PM EDT
Moon 3:59 PM EDT (10/24) 2:49 AM EDT (10/24)
Length of Visible Light 11h 37m
Length of Day
10h 40m
Waxing Gibbous, 76% of the Moon is Illuminated
Oct 24
Waxing Gibbous
Oct 29
Full
Nov 6
Last Quarter
Nov 13
New
Nov 20
First Quarter

Hourly Weather History & Observations

Time (EDT) Temp. Dew Point Humidity Pressure Visibility Wind Dir Wind Speed Gust Speed Precip Events Conditions
12:53 AM 61.0 °F 57.9 °F 90% 30.03 in 9.0 mi SW 5.8 mph - 0.00 in   Overcast
1:53 AM 60.1 °F 57.9 °F 93% 30.03 in 5.0 mi South 3.5 mph - 0.00 in Rain Light Rain
2:53 AM 60.1 °F 57.9 °F 93% 30.03 in 6.0 mi Calm Calm - 0.00 in   Overcast
3:43 AM 60.8 °F 59.0 °F 94% 30.03 in 1.8 mi Calm Calm - 0.07 in Rain Rain
3:51 AM 60.8 °F 59.0 °F 94% 30.02 in 3.0 mi South 3.5 mph - 0.08 in Rain Light Rain
3:53 AM 60.1 °F 59.0 °F 96% 30.02 in 3.0 mi Calm Calm - 0.08 in Rain Light Rain
4:53 AM 60.1 °F 57.9 °F 93% 30.02 in 7.0 mi South 5.8 mph - 0.02 in   Overcast
5:53 AM 60.1 °F 57.9 °F 93% 30.02 in 6.0 mi South 4.6 mph - N/A   Overcast
6:53 AM 59.0 °F 57.0 °F 93% 30.03 in 7.0 mi SSW 4.6 mph - N/A   Mostly Cloudy
7:53 AM 57.9 °F 57.0 °F 97% 30.05 in 6.0 mi Calm Calm - N/A   Overcast
8:53 AM 60.1 °F 57.0 °F 90% 30.05 in 9.0 mi SW 3.5 mph - N/A   Mostly Cloudy
9:53 AM 64.0 °F 55.9 °F 75% 30.04 in 10.0 mi SW 8.1 mph - N/A   Clear
10:53 AM 66.0 °F 55.0 °F 68% 30.05 in 10.0 mi WSW 8.1 mph - N/A   Clear
12:53 PM 71.1 °F 55.9 °F 59% 30.03 in 10.0 mi SW 9.2 mph - N/A   Clear
1:53 PM 73.9 °F 57.0 °F 55% 30.01 in 10.0 mi South 11.5 mph - N/A   Clear
2:53 PM 75.0 °F 57.9 °F 55% 29.99 in 10.0 mi SSW 12.7 mph - N/A   Clear
3:53 PM 77.0 °F 57.9 °F 52% 29.98 in 10.0 mi SSW 11.5 mph - N/A   Clear
4:53 PM 75.9 °F 57.9 °F 54% 29.98 in 10.0 mi SW 18.4 mph 21.9 mph N/A   Clear
5:53 PM 75.0 °F 59.0 °F 57% 29.99 in 10.0 mi SW 10.4 mph - N/A   Clear
6:53 PM 70.0 °F 59.0 °F 68% 29.99 in 10.0 mi SSW 5.8 mph - N/A   Clear
7:53 PM 68.0 °F 59.0 °F 73% 30.00 in 10.0 mi SSW 6.9 mph - N/A   Clear
9:53 PM 66.0 °F 57.9 °F 75% 30.00 in 10.0 mi SSW 6.9 mph - N/A   Clear
10:53 PM 64.0 °F 57.0 °F 78% 30.00 in 10.0 mi SSW 9.2 mph - N/A   Clear
11:53 PM 62.1 °F 55.0 °F 78% 30.00 in 10.0 mi SSW 6.9 mph - N/A   Clear